Location: Cadimarco
(45.2167°N, 10.3500°E)
Time: 08:18:50
(UTC+00:00)

Daily predictions for brighter satellites

Satellite Brightness Start Highest point End
(mag) Time Altitude Azimuth Time Altitude Azimuth Time Altitude Azimuth
STARLINK-1082 3.7 19:31:28 10° WNW 19:35:38 87° NNE 19:39:47 10° ESE
USA 186 4.1 19:35:12 10° SW 19:37:03 17° W 19:39:00 10° NW
Lacrosse 5 1.9 19:32:27 10° NW 19:37:32 82° SW 19:42:35 10° SE
STARLINK-1203 3.8 19:33:29 10° WSW 19:37:41 82° NNW 19:41:55 10° ENE
STARLINK-1216 3.8 19:33:52 10° WSW 19:38:00 82° NNW 19:42:10 10° ENE
STARLINK-1100 3.6 19:36:26 10° WNW 19:40:35 87° SW 19:44:45 10° SE
ISS -3.6 19:37:18 10° WNW 19:40:39 67° SSW 19:43:59 10° SE
COSMOS 2406 4.1 19:36:36 10° NW 19:42:09 50° WSW 19:47:39 10° S
Cosmos 1975 3.7 19:38:48 10° NNW 19:42:45 52° W 19:46:38 10° S
STARLINK-1237 3.9 19:38:51 10° WSW 19:42:59 76° NNW 19:47:09 10° NE
CZ-2C R/B 2.9 19:37:58 10° NNE 19:43:38 85° WNW 19:49:14 10° SSW
STARLINK-1083 3.6 19:41:26 10° WNW 19:45:36 82° SSW 19:49:44 10° SE
Cosmos 1674 Rocket 4.4 19:43:06 10° SSE 19:46:58 32° E 19:50:54 10° NNE
Meteor 2-4 Rocket 3.6 19:41:38 10° S 19:46:59 85° E 19:52:22 10° NNE
STARLINK-1202 4.0 19:43:51 10° WSW 19:47:59 71° NNW 19:52:08 10° NE
NOSS 2-2 (E) 4.1 19:45:47 10° S 19:48:46 25° ESE 19:51:58 10° ENE
EXPRESS MD2 3.3 19:47:08 10° SW 19:49:48 44° SE 19:54:24 10° ENE
STARLINK-1125 3.7 19:46:26 10° WNW 19:50:34 76° SW 19:54:31 11° SE
Cosmos 2297 4.2 19:48:21 10° S 19:53:35 40° ESE 19:58:54 10° NE
Cosmos 1833 Rocket 3.1 19:48:07 10° NNW 19:53:41 62° WSW 19:59:12 10° S
Cosmos 1943 Rocket 3.6 19:50:37 10° SE 19:54:16 18° E 19:57:57 10° ENE
STARLINK-1109 3.7 19:51:25 10° WNW 19:55:33 70° SW 19:59:18 12° SE
STARLINK-1246 4.2 19:53:52 10° WSW 19:57:58 62° NNW 20:02:06 10° NE
IGS 5A 4.1 19:55:29 11° SE 19:59:12 41° ENE 20:03:09 10° N
Cosmos 1420 Rocket 4.5 19:54:49 10° SSW 19:59:59 66° WNW 20:05:10 10° NNE
Cosmos 1452 Rocket 3.5 19:54:57 10° SSW 20:00:14 87° ESE 20:05:33 10° NNE
Cosmos 2082 Rocket 2.3 19:54:38 10° NNW 20:00:24 88° WSW 20:06:02 10° SSE
STARLINK-1091 3.8 19:56:22 10° WNW 20:00:29 64° SW 20:04:04 13° SE
Cosmos 332 Rocket 3.8 19:55:40 10° S 20:00:32 70° ESE 20:05:25 10° NNE
BREEZE-M DEB 3.2 19:58:54 10° SSW 20:00:49 24° SE 20:03:51 10° ENE
Landsat 7 4.2 19:57:48 11° SE 20:02:12 49° ENE 20:06:48 10° N
STARLINK-1097 4.5 19:58:43 10° NW 20:02:43 45° NNE 20:06:43 10° E
STARLINK-1224 4.3 19:58:52 10° WSW 20:02:58 59° NNW 20:07:04 10° NE
Intercosmos 24 3.6 19:59:37 10° N 20:03:11 81° E 20:07:05 10° S
STARLINK-1072 3.9 20:01:24 10° WNW 20:05:29 59° SW 20:08:52 14° SE
Cosmos 1461 2.8 20:02:51 10° SSW 20:06:57 69° ESE 20:11:17 10° NE
STARLINK-1099 4.4 20:03:41 10° NW 20:07:43 48° NNE 20:11:44 10° E
STARLINK-1225 4.4 20:03:53 10° WSW 20:07:58 55° NNW 20:12:03 10° NE
Okean 3 4.1 20:04:47 10° SSW 20:09:01 59° W 20:13:18 10° N
Cosmos 2369 Rocket 3.7 20:07:22 13° SE 20:10:11 18° E 20:13:51 10° ENE
STARLINK-1096 4.0 20:06:23 10° WNW 20:10:27 54° SW 20:13:39 15° SE
SAR-Lupe-2 3.9 20:08:17 10° NNE 20:11:47 47° E 20:15:09 11° S
STARLINK-1104 4.3 20:08:39 10° NW 20:12:42 51° NNE 20:16:40 10° E
NOSS 2-2 (C) 3.6 20:10:00 10° S 20:13:16 35° ESE 20:16:46 10° NE
STARLINK-1079 4.1 20:11:23 10° WNW 20:15:24 50° SW 20:18:26 16° SSE
Cosmos 2221 Rocket 4.4 20:12:29 10° SSW 20:16:55 54° WNW 20:21:24 10° N
ATLAS 2AS CENTAUR R/B 4.3 20:13:12 13° SE 20:17:07 19° ESE 20:22:15 10° ENE
STARLINK-1144 4.2 20:13:38 10° NW 20:17:42 54° NNE 20:21:27 12° ESE
SL-4 R/B 3.4 20:15:45 10° WNW 20:18:00 19° WSW 20:20:06 10° SSW
SPOT 5 3.8 20:14:18 14° SE 20:18:21 39° ENE 20:23:19 10° N
STARLINK-1116 4.2 20:16:23 10° WNW 20:20:22 45° SW 20:23:13 17° SSE
Meteor 1-13 Rocket 4.4 20:14:54 10° SSW 20:20:31 78° W 20:26:18 10° N
STARLINK-1103 4.1 20:18:35 10° NW 20:22:41 57° NNE 20:26:14 13° ESE
ERS-1 Rocket 3.4 20:19:40 16° SE 20:23:30 48° ENE 20:28:21 10° N
STARLINK-1101 4.0 20:23:34 10° NW 20:27:40 61° NNE 20:31:01 15° ESE
Cosmos 1066 Rocket 4.1 20:22:50 10° S 20:28:10 65° E 20:33:29 10° NNE
USA 245 2.5 20:27:56 19° S 20:29:59 74° WSW 20:32:34 10° NNW
STARLINK-1094 4.5 20:26:26 10° WNW 20:30:17 38° SW 20:32:47 19° SSE
USA 238 DEB 4.3 20:25:10 10° NNW 20:32:13 55° NE 20:38:25 15° ESE
USA 238 4.3 20:25:16 10° NNW 20:32:19 55° NE 20:38:32 15° ESE
STARLINK-1102 3.9 20:28:33 10° NW 20:32:41 65° NNE 20:35:48 17° ESE
Cosmos 2278 Rocket 4.1 20:28:20 10° WSW 20:33:27 34° NW 20:38:36 10° N
Resurs 01 Rocket 3.1 20:29:30 10° SSW 20:33:32 33° W 20:37:34 10° NNW
Nadezhda 4 Rocket 4.0 20:28:31 10° S 20:34:36 68° E 20:40:41 10° NNE
Okean 1 Rocket 3.1 20:30:20 10° N 20:34:48 73° E 20:37:54 19° SSE
Cosmos 1805 3.8 20:31:18 10° N 20:35:03 42° ENE 20:37:07 23° SE
Cosmos 1741 Rocket 4.4 20:30:21 10° NNW 20:35:30 61° WSW 20:39:49 15° S
GPS 2-04 Rocket1 4.2 20:33:28 10° SW 20:35:49 17° S 20:35:57 17° S
STARLINK-1111 3.8 20:33:31 10° NW 20:37:39 69° NNE 20:40:34 19° ESE
Cosmos 1455 Rocket 4.4 20:36:41 10° NNE 20:40:17 25° ENE 20:42:18 18° ESE
STARLINK-1073 3.7 20:38:30 10° NW 20:42:39 74° NNE 20:45:22 21° ESE
SL-8 R/B 3.7 20:37:50 10° WNW 20:42:40 89° NE 20:46:16 18° ESE
SL-4 R/B 3.0 20:42:51 10° SSW 20:47:03 32° SE 20:51:20 10° ENE
Cosmos 1110 Rocket 3.9 20:41:58 10° SSW 20:47:10 89° ESE 20:52:22 10° NNE
Terra 2.3 20:44:22 22° SE 20:47:11 49° ENE 20:51:46 10° N
ATLAS 3B CENTAUR R/B 4.0 20:36:49 10° WSW 20:47:25 26° S 20:50:57 20° SSE
STARLINK-1121 3.6 20:43:28 10° WNW 20:47:38 79° NNE 20:50:08 23° ESE
Spot 2 Rocket 4.0 20:44:03 13° S 20:48:25 54° W 20:53:24 10° NNW
SPOT 1/Viking Rocket 3.7 20:45:17 17° S 20:49:16 75° WSW 20:54:26 10° NNW
Cosmos 1842 4.2 20:48:51 25° SE 20:50:03 30° E 20:53:30 10° NNE
CARTOSAT-1 3.5 20:47:49 23° SSE 20:50:25 79° ENE 20:54:46 10° N
Abrixas rocket 2.0 20:48:11 10° WNW 20:51:06 59° SSW 20:51:50 41° SSE
STARLINK-1106 3.6 20:48:28 10° WNW 20:52:38 85° NNE 20:54:56 25° ESE
STARLINK-1112 3.5 20:53:25 10° WNW 20:57:35 90° SW 20:59:42 28° SE
STARLINK-1128 3.5 20:58:23 10° WNW 21:02:33 84° SW 21:04:28 31° SE
Cosmos 1331 Rocket 4.1 20:58:50 10° SSW 21:03:58 74° WNW 21:09:10 10° NNE
Aureole 2 Rocket 4.3 21:02:14 10° WSW 21:04:54 26° WNW 21:07:29 10° N
STARLINK-1113 3.5 21:03:23 10° WNW 21:07:32 78° SW 21:09:15 34° SE
Cosmos 1733 3.1 21:04:22 10° N 21:08:11 69° E 21:09:32 37° SSE
COSMOS 2455 4.2 21:09:44 19° ESE 21:10:30 20° ESE 21:14:41 10° ENE
Cosmos 1378 3.5 21:09:41 21° SSW 21:11:59 62° W 21:15:41 10° N
STARLINK-1119 3.6 21:08:23 10° WNW 21:12:32 72° SW 21:14:04 37° SE
Cosmos 1302 Rocket 3.9 21:10:14 19° S 21:14:02 74° ESE 21:19:21 10° NNE
Cosmos 1271 Rocket 3.9 21:14:22 26° ESE 21:14:46 26° E 21:18:05 10° NE
USA 215 4.5 21:09:11 10° E 21:15:09 39° NNE 21:21:06 10° NW
Cosmos 1486 Rocket 4.4 21:10:26 10° NNW 21:15:38 54° ENE 21:18:13 28° SE
Cosmos 1242 Rocket 3.2 21:15:26 36° ESE 21:15:55 37° E 21:19:21 10° NNE
ISS -1.1 21:16:29 10° SW 21:16:52 10° SW 21:17:02 10° SW
Cosmos 1544 Rocket 4.2 21:13:05 10° N 21:17:13 42° ENE 21:18:39 31° ESE
STARLINK-1114 3.6 21:13:21 10° WNW 21:17:28 66° SW 21:18:49 39° SSE
MTI 3.6 21:15:25 10° NNE 21:18:33 67° ESE 21:18:58 57° SSE
STARLINK-60 3.8 21:20:10 34° E 21:20:10 34° E 21:22:14 10° ENE
Lacrosse 5 4.0 21:16:56 10° W 21:19:48 15° WSW 21:22:07 11° SSW
Cosmos 1092 Rocket 3.9 21:15:31 19° S 21:20:07 87° W 21:26:19 10° N
NOSS 2-2 (D) 4.2 21:18:14 10° WSW 21:21:41 46° NW 21:25:35 10° NNE
STARLINK-1130 (DARKSAT) 3.7 21:18:21 10° WNW 21:22:27 61° SW 21:23:37 42° SSE
Cosmos 1707 3.9 21:24:35 27° E 21:24:52 27° E 21:28:11 10° NNE
CENTAUR R/B 3.4 21:16:57 10° NW 21:24:55 67° NE 21:31:08 21° SE
STARLINK-1084 3.8 21:23:21 10° WNW 21:27:25 56° SW 21:28:24 43° S
ATLAS 3B R/B 3.8 21:21:40 10° NNW 21:27:54 37° NE 21:33:57 11° ESE
SL-27 R/B 2.4 21:25:12 10° NNW 21:28:48 80° ENE 21:29:28 56° SE
NOSS 3-2 (C) 4.1 21:22:38 10° NW 21:30:10 77° NE 21:35:37 25° SE
Cosmos 1766 4.0 21:27:17 10° NNW 21:31:08 47° W 21:32:47 29° SSW
Cosmos 1726 3.9 21:29:28 10° NNE 21:32:14 20° ENE 21:32:50 19° E
STARLINK-1098 3.9 21:28:21 10° WNW 21:32:23 51° SW 21:33:11 44° S
Cosmos 1867 4.4 21:29:43 10° NNW 21:34:58 45° NE 21:38:07 22° ESE
COSMOS 2487 4.4 21:33:46 10° NNE 21:36:15 18° ENE 21:37:03 17° ENE
STARLINK-1123 4.0 21:33:20 10° WNW 21:37:19 47° SW 21:37:56 43° SSW
Cosmos 1943 Rocket 2.4 21:31:51 10° SW 21:37:22 70° WNW 21:42:59 10° NNE
Cosmos 1992 Rocket 4.3 21:36:08 36° SSE 21:37:38 47° ESE 21:42:37 10° NNE
NOSS 3-4 (A) 3.6 21:36:32 31° S 21:38:55 48° ESE 21:44:52 10° NE
NOSS 3-4 (C) 3.6 21:36:40 32° S 21:39:01 47° ESE 21:44:58 10° NE
Cosmos 1428 Rocket 4.5 21:36:33 26° S 21:40:24 89° W 21:46:43 10° N
STARLINK-1097 4.1 21:38:22 10° WNW 21:42:19 43° SW 21:42:45 41° SSW
SeaSat 1 2.9 21:39:07 10° NE 21:43:45 40° ESE 21:44:34 37° SE
EO 1 Del DPAF 3.7 21:40:46 10° NNE 21:44:23 42° E 21:44:29 42° ESE
Cosmos 1975 Rocket 3.7 21:44:36 24° SW 21:46:59 51° WNW 21:51:19 10° N
STARLINK-1099 4.2 21:43:22 10° WNW 21:47:15 39° SW 21:47:31 39° SSW
STARLINK-1212 4.2 21:47:02 10° NW 21:49:58 37° NNE 21:50:47 30° ENE
STARLINK-1105 4.2 21:47:30 10° NW 21:50:26 37° NNE 21:51:13 31° ENE
Cosmos 292 Rocket 3.7 21:48:20 32° SSW 21:50:38 85° WNW 21:55:32 10° NNE
STARLINK-1247 4.2 21:48:22 10° NW 21:51:20 38° NNE 21:52:06 31° ENE
BREEZE-M DEB (TANK) 3.8 21:37:30 10° WSW 21:51:36 72° NNW 21:55:21 10° ENE
STARLINK-1227 4.1 21:48:52 10° NW 21:51:48 38° NNE 21:52:33 32° ENE
Meteor 2-10 4.4 21:47:12 10° N 21:52:07 50° ENE 21:53:43 36° SE
STARLINK-1104 4.4 21:48:23 10° WNW 21:52:12 36° SW 21:52:18 36° SW
STARLINK-1226 4.1 21:49:43 10° NW 21:52:40 38° NNE 21:53:24 33° ENE
BREEZE-M DEB (TANK) 3.7 21:49:05 10° WNW 21:52:48 50° N 21:56:41 10° E
Cosmos 2369 Rocket 2.4 21:49:04 17° SW 21:53:34 72° WNW 21:59:13 10° NNE
STARLINK-1215 4.1 21:50:37 10° NW 21:53:35 39° NNE 21:54:16 33° ENE
STARLINK-1217 4.0 21:52:25 10° NW 21:55:24 40° NNE 21:56:00 35° NE
S3M 4.1 21:49:26 10° N 21:55:34 63° E 21:58:11 35° SSE
STARLINK-1229 4.0 21:53:19 10° NW 21:56:19 40° NNE 21:56:54 36° NE
SPOT 5 4.5 21:53:31 18° SW 21:56:27 30° W 22:01:09 10° NNW
STARLINK-1270 3.9 21:54:13 10° NW 21:57:12 41° NNE 21:57:45 37° NE
STARLINK-1189 3.9 21:56:00 10° NW 21:59:00 42° NNE 21:59:29 38° NE
Aureole 3 Rocket 4.4 21:52:57 10° N 21:59:18 83° W 22:03:53 30° S
ATLAS CENTAUR R/B 1.7 21:59:35 46° ESE 21:59:35 46° ESE 22:03:30 10° NE
STARLINK-1188 3.9 21:56:55 10° NW 21:59:55 43° NNE 22:00:22 39° NE
STARLINK-1187 3.6 21:58:00 10° NW 22:01:01 47° NNE 22:01:14 46° NE
Cosmos 1340 Rocket 3.5 21:58:03 10° N 22:01:55 41° ENE 22:02:31 38° E
STARLINK-1191 3.8 21:59:21 10° NW 22:02:21 44° NNE 22:02:39 42° NE
STARLINK-1221 3.7 22:00:18 10° NW 22:03:18 44° NNE 22:03:34 43° NE
Aureole 3 4.5 22:01:06 10° NNE 22:03:24 22° ENE 22:03:24 22° ENE
Cosmos 1025 Rocket 2.9 22:02:58 57° S 22:03:49 82° E 22:08:08 10° N
STARLINK-1222 3.7 22:01:09 10° NW 22:04:09 45° NNE 22:04:23 44° NE
STARLINK-1214 3.7 22:02:03 10° NW 22:05:04 46° NNE 22:05:15 45° NE
Thor Agena Rocket 3.5 21:59:57 10° NNE 22:05:17 81° ESE 22:07:12 41° S
ATLAS 2AS CENTAUR R/B 3.0 22:00:30 17° SSW 22:07:01 79° SE 22:14:59 10° NE
Cosmos 1656 Rocket 3.6 22:04:50 37° SSW 22:07:09 77° ESE 22:12:45 10° NNE
BREEZE M DEB (TANK) 3.5 22:05:14 10° W 22:08:03 33° NNW 22:08:33 29° NNE
Cosmos 1553 Rocket 4.0 22:02:46 10° N 22:09:04 78° W 22:11:43 37° S
Cosmos 1953 2.4 22:06:20 10° N 22:10:18 61° E 22:10:41 58° ESE
BREEZE-M DEB (TANK) 3.7 21:58:29 10° WNW 22:10:25 81° SSW 22:11:56 42° SE
STARLINK-1228 3.3 22:07:28 10° NW 22:10:58 69° NNE 22:11:08 67° NE
Cosmos 1470 3.1 22:07:33 10° NNW 22:11:21 53° W 22:11:51 49° SW
NOSS 3-2 (A) 4.5 22:04:02 10° NW 22:11:22 50° WSW 22:15:11 31° S
APEX 4.5 22:06:47 18° SW 22:11:45 71° WNW 22:17:08 10° NNE
Cosmos 2292 Rocket 3.8 22:13:24 40° E 22:13:24 40° E 22:16:12 10° NNE
STARLINK-1235 3.3 22:10:11 10° NW 22:13:12 63° N 22:13:12 63° N
Cosmos 968 Rocket 3.6 22:11:04 10° NNW 22:16:09 60° WSW 22:17:31 44° SSW
Cosmos 1655 Rocket 3.9 22:15:01 38° S 22:17:37 86° E 22:23:55 10° N
Cosmos 1455 Rocket 4.4 22:14:19 10° NNW 22:18:08 30° W 22:19:25 26° WSW
SL-4 R/B 3.6 22:20:18 15° NNE 22:20:18 15° NNE 22:20:54 10° N
ATLAS 5 CENTAUR R/B 1.5 22:21:45 69° SW 22:22:07 86° NW 22:24:30 10° NE
Cosmos 1758 4.0 22:20:57 10° NNW 22:24:50 45° W 22:25:25 41° WSW
Terra 3.7 22:23:15 16° WSW 22:25:11 20° W 22:28:42 10° NW
SL-4 R/B 2.6 22:21:45 10° WSW 22:26:34 71° NNW 22:31:24 10° ENE
Cosmos 2228 3.8 22:24:03 10° N 22:28:01 37° ENE 22:28:36 35° E
Meteor 2-15 4.5 22:22:46 10° N 22:28:55 70° E 22:31:06 41° SSE
STARLINK-1234 3.9 22:27:56 10° WNW 22:30:17 44° WNW 22:30:17 44° WNW
In-Cosmos 22 4.0 22:30:05 50° S 22:31:30 80° E 22:36:48 10° NNE
Cosmos 2266 Rocket 3.8 22:33:43 43° S 22:35:54 87° E 22:41:59 10° N
Cosmos 1503 Rocket 4.3 22:31:06 10° NNW 22:36:18 57° WSW 22:37:35 45° SSW
STARLINK-1209 4.2 22:34:06 10° WNW 22:36:13 36° WNW 22:36:13 36° WNW
SJ 16-02 4.0 22:41:57 10° NNE 22:44:01 13° NE 22:46:05 10° E
STARLINK-1238 4.5 22:42:35 10° NW 22:46:37 49° NNE 22:48:47 24° E
Cosmos 1536 Rocket 4.5 22:45:44 33° WSW 22:46:52 40° WNW 22:51:00 10° N
Cosmos 1674 2.7 22:48:20 71° ENE 22:48:20 71° ENE 22:51:55 10° NNE
Meteor 2-15 Rocket 4.4 22:42:40 10° N 22:48:52 80° E 22:50:55 44° SSE
Helios 1B rocket 4.3 22:47:17 10° NE 22:50:09 19° E 22:50:09 19° E
STARLINK-1201 4.3 22:47:33 10° NW 22:51:37 51° NNE 22:53:33 27° E
COSMOS 2455 2.9 22:52:50 32° SW 22:55:47 75° NW 23:01:50 10° NNE
STARLINK-1206 4.2 22:52:32 10° NW 22:56:38 54° NNE 22:58:21 31° E
Cosmos 883 Rocket 4.4 22:50:51 10° NNW 22:56:58 74° W 22:58:57 44° SSW
USA 215 3.3 22:52:56 20° ESE 22:57:40 81° NE 23:04:15 10° NW
Cosmos 2219 4.4 22:53:37 10° NNW 22:58:51 36° NE 23:02:17 19° ESE
STARLINK-1205 4.1 22:57:30 10° NW 23:01:36 58° NNE 23:03:07 35° E
Helios 1A 2.9 23:01:35 68° ESE 23:01:58 74° ENE 23:06:10 10° N
Cosmos 2297 Rocket 3.6 22:58:00 10° N 23:03:05 33° NE 23:07:00 15° ESE
Lacrosse 4 Rocket 4.3 23:04:14 10° N 23:06:21 13° NE 23:08:25 10° ENE
STARLINK-1218 4.0 23:02:29 10° NW 23:06:36 62° NNE 23:07:55 39° E
STARLINK-1368 4.4 23:08:27 36° ENE 23:08:27 36° ENE 23:10:51 10° ENE
Cosmos 1726 3.5 23:04:14 10° NNW 23:07:20 29° W 23:07:20 29° W
ALOS 2 2.9 23:07:47 51° WSW 23:08:07 53° W 23:12:26 10° NNW
STARLINK-1369 4.3 23:11:47 39° ENE 23:11:47 39° ENE 23:14:20 10° ENE
Timation 2 Rocket 3.9 23:04:19 10° NNW 23:10:40 85° ENE 23:12:55 42° SSE
Cosmos 2058 Rocket 3.3 23:06:56 10° N 23:11:21 58° E 23:11:58 52° ESE
COSMOS 2487 4.0 23:08:17 10° NW 23:10:32 26° WNW 23:10:32 26° WNW
STARLINK-1254 3.9 23:07:27 10° NW 23:11:35 66° NNE 23:12:41 45° E
STARLINK-1372 4.1 23:15:07 44° ENE 23:15:07 44° ENE 23:17:50 10° ENE
CENTAUR R/B 3.9 23:08:05 10° NW 23:15:30 38° WSW 23:18:17 31° SSW
Meteor 2-5 Rocket 3.6 23:14:12 52° S 23:15:39 85° E 23:21:19 10° NNE
STARLINK-1231 3.8 23:12:25 10° NW 23:16:34 70° NNE 23:17:27 52° E
STARLINK-1378 4.0 23:18:28 48° ENE 23:18:28 48° ENE 23:21:21 10° ENE
Cosmos 1867 4.4 23:13:35 10° NW 23:18:26 33° WSW 23:18:45 33° WSW
ATLAS 3B R/B 2.8 23:12:14 10° NW 23:18:56 61° WSW 23:21:09 42° S
SL-14 R/B 3.5 23:19:11 57° E 23:19:11 57° E 23:22:49 10° NNE
FALCON 9 DEB 3.8 23:20:07 51° NW 23:20:14 51° NNW 23:23:37 10° NE
STARLINK-1379 3.8 23:21:51 53° ENE 23:21:51 53° ENE 23:24:52 10° ENE
SeaSat 1 3.9 23:16:47 10° N 23:21:10 33° NW 23:24:20 17° WSW
Cosmos 1606 Rocket 3.7 23:17:06 10° NNW 23:21:21 55° W 23:21:36 54° WSW
STARLINK-1232 3.7 23:17:25 10° NW 23:21:35 75° NNE 23:22:15 59° E
STARLINK-1329 3.8 23:23:14 56° ENE 23:23:14 56° ENE 23:26:20 10° ENE
Meteor 2-21 4.4 23:20:59 46° S 23:22:58 83° E 23:29:12 10° N
STARLINK-1362 3.6 23:26:40 62° ENE 23:26:40 62° ENE 23:29:55 10° ENE
STARLINK-1208 3.6 23:22:22 10° WNW 23:26:32 81° NNE 23:27:00 68° E
ATLAS CENTAUR R/B 3.0 23:26:43 10° NNW 23:28:53 30° NE 23:32:47 10° ESE
Cosmos 1656 4.5 23:27:53 34° SE 23:28:56 37° ESE 23:34:03 10° NE
STARLINK-1373 3.5 23:30:05 69° ENE 23:30:05 69° ENE 23:33:30 10° ENE
RESURS DK-1 2.7 23:29:48 51° W 23:30:22 57° WNW 23:34:28 10° NNE
STARLINK-1365 3.5 23:31:12 75° NE 23:31:12 75° NE 23:34:45 10° ENE
STARLINK-1271 3.5 23:27:22 10° WNW 23:31:33 86° NNE 23:31:49 78° ESE
STARLINK-1390 3.4 23:33:34 75° NE 23:33:34 75° NE 23:37:07 10° ENE
Cosmos 1697 Rocket 4.2 23:32:47 21° ESE 23:34:02 23° E 23:38:21 10° NE
Cosmos 2084 3.7 23:33:36 51° WSW 23:34:34 67° NW 23:39:02 10° NE
Cosmos 1626 2.1 23:36:00 77° NNW 23:36:00 77° NNW 23:39:32 10° N
BREEZE-M R/B 3.4 23:31:45 22° SW 23:36:24 76° SSE 23:40:12 10° ENE
STARLINK-1154 3.4 23:32:21 10° WNW 23:36:31 88° SSW 23:36:35 86° SSE
Okean 1-7 Rocket 3.5 23:37:39 64° SW 23:38:13 75° W 23:42:46 10° N
ATLAS CENTAUR R/B 3.4 23:35:42 13° W 23:38:34 25° NW 23:41:59 10° NNE
Cosmos 2227 Rocket 2.8 23:34:37 10° NNW 23:40:11 52° ENE 23:43:30 24° SE
STARLINK-1197 3.5 23:37:18 10° WNW 23:41:21 80° WSW 23:41:21 80° WSW
CZ-4 R/B 3.7 23:38:15 10° NNE 23:43:02 77° ESE 23:43:50 60° S
STARLINK-1198 3.6 23:42:17 10° WNW 23:46:07 70° W 23:46:07 70° W
Cosmos 1602 Rocket 4.1 23:47:23 42° ESE 23:47:57 44° E 23:52:04 10° NNE
STARLINK-1199 3.7 23:47:18 10° WNW 23:50:55 61° W 23:50:55 61° W
Meteor 2-21 Rocket 4.4 23:50:06 43° SSW 23:52:13 78° W 23:58:27 10° N
